HADES-ICM

Last updated on Fri Dec 19 2025 00:03:12 GMT+0000 (Coordinated Universal Time)

1 63492U 25052BN 25351.96064983 .00050303 00000+0 12519-2 0 9999 2 63492 97.4082 245.5345 0011624 61.2981 298.9432 15.40039410 42500
UTC large
Height (km)
Speed (km/s)
/
Latitude / Longitude
Inclination (degrees)
Orbital Period (minutes)
Azimuth
Elevation
Range (km)
Doppler Factor

Next 0 passes for location: London (51.5072 / 0.1276)

Sorry there are no passes over London.